DW5222 Weather Reports


time (UTC)temp
F
wind
direction
speed
knots
gust
knots
rain 1hr
in
rain 24hr
in
rain mn
in
humidity
%
barometer
mb
20200407035704 39 279 0.0 0.0 0.00 0.00 0.00 79 1028.2
20200407035205 39 279 0.0 0.0 0.00 0.00 0.00 79 1028.2
20200407034705 39 279 0.0 0.0 0.00 0.00 0.00 78 1028.2
20200407034205 39 279 0.0 0.0 0.00 0.00 0.00 78 1028.1
20200407033705 40 279 0.0 0.0 0.00 0.00 0.00 78 1028.1
20200407033205 40 279 0.0 0.0 0.00 0.00 0.00 77 1028.1
20200407032705 40 279 0.0 0.0 0.00 0.00 0.00 77 1028.0
20200407032205 40 279 0.0 0.0 0.00 0.00 0.00 77 1028.0
20200407031705 40 279 0.0 0.0 0.00 0.00 0.00 76 1028.0
20200407031205 41 279 0.0 0.0 0.00 0.00 0.00 76 1028.0
20200407030705 41 279 0.0 0.0 0.00 0.00 0.00 77 1028.0
20200407030205 40 279 0.0 0.0 0.00 0.00 0.00 77 1027.9
20200407025705 40 279 0.0 0.0 0.00 0.00 0.00 77 1027.9
20200407025205 40 279 0.0 0.0 0.00 0.00 0.00 77 1027.9
20200407024705 40 282 0.0 0.0 0.00 0.00 0.00 77 1027.8
20200407024205 40 282 0.0 0.0 0.00 0.00 0.00 77 1027.8
20200407023705 40 282 0.0 0.0 0.00 0.00 0.00 77 1027.8
20200407023205 40 286 0.0 0.0 0.00 0.00 0.00 77 1027.8
20200407022706 40 286 0.0 0.0 0.00 0.00 0.00 77 1027.7
20200407022205 40 286 0.0 0.0 0.00 0.00 0.00 77 1027.7
20200407021705 40 286 0.0 0.0 0.00 0.00 0.00 76 1027.7
20200407021204 40 286 0.0 0.0 0.00 0.00 0.00 76 1027.7
20200407020727 40 286 0.0 0.0 0.00 0.00 0.00 77 1027.6
20200407020205 40 286 0.0 0.0 0.00 0.00 0.00 77 1027.7
20200407015705 40 286 0.0 0.0 0.00 0.00 0.00 77 1027.6
20200407015205 40 286 0.0 0.0 0.00 0.00 0.00 77 1027.6
20200407014705 40 286 0.0 0.0 0.00 0.00 0.00 77 1027.5
20200407014206 40 286 0.0 0.0 0.00 0.00 0.00 76 1027.5
20200407013705 40 286 0.0 0.0 0.00 0.00 0.00 76 1027.5
20200407013205 41 286 0.0 0.0 0.00 0.00 0.00 76 1027.5
20200407012705 41 286 0.0 0.0 0.00 0.00 0.00 75 1027.4
20200407012204 41 286 0.0 0.0 0.00 0.00 0.00 75 1027.3
20200407011705 41 286 0.0 0.0 0.00 0.00 0.00 75 1027.3
20200407011205 41 286 0.0 0.0 0.00 0.00 0.00 75 1027.1
20200407010704 41 286 0.0 0.0 0.00 0.00 0.00 74 1027.1
20200407010205 42 286 0.0 0.0 0.00 0.00 0.00 74 1027.1
20200407005705 42 286 0.0 0.0 0.00 0.00 0.00 74 1027.1
20200407005205 42 286 0.0 0.0 0.00 0.00 0.00 74 1027.1
20200407004706 42 286 0.0 0.0 0.00 0.00 0.00 74 1027.1
20200407004205 42 286 0.0 0.0 0.00 0.00 0.00 74 1027.1
20200407003705 42 286 0.0 0.0 0.00 0.00 0.00 74 1027.1
20200407003205 42 286 0.0 0.0 0.00 0.00 0.00 73 1027.0
20200407002704 42 286 0.0 0.0 0.00 0.00 0.00 73 1027.1
20200407002205 43 286 0.0 0.0 0.00 0.00 0.00 72 1027.1
20200407001705 43 286 0.0 0.0 0.00 0.00 0.00 71 1027.0
20200407000705 43 284 0.0 0.0 0.00 0.00 0.00 71 1027.0
20200407000205 44 0 0.0 0.0 0.00 0.00 0.00 71 1026.9
20200406235205 44 0 0.0 0.0 0.00 0.00 0.00 70 1026.9
20200406234705 44 283 0.0 0.0 0.00 0.00 0.00 69 1026.8
20200406233704 45 0 0.0 0.0 0.00 0.00 0.00 68 1026.7
20200406233205 45 286 0.0 0.0 0.00 0.00 0.00 68 1026.7
20200406225205 45 0 0.0 0.0 0.00 0.00 0.00 67 1026.3
20200406224705 45 284 0.0 0.0 0.00 0.00 0.00 67 1026.3
20200406224205 46 285 0.0 0.0 0.00 0.00 0.00 66 1026.2
20200406223705 46 286 0.0 0.0 0.00 0.00 0.00 66 1026.2
20200406223205 46 286 0.0 0.0 0.00 0.00 0.00 66 1026.1
20200406222705 46 295 0.0 0.0 0.00 0.00 0.00 66 1026.1
20200406222205 46 294 0.0 0.0 0.00 0.00 0.00 65 1026.0
20200406221705 46 0 0.0 0.0 0.00 0.00 0.00 65 1026.0
20200406221205 47 295 0.0 0.0 0.00 0.00 0.00 64 1025.9
20200406220706 47 0 0.0 0.0 0.00 0.00 0.00 63 1026.0
20200406220205 47 0 0.0 0.0 0.00 0.00 0.00 63 1025.9
20200406215705 47 0 0.0 0.0 0.00 0.00 0.00 63 1025.9
20200406215205 47 0 0.0 0.0 0.00 0.00 0.00 63 1025.8
20200406214705 47 0 0.0 0.0 0.00 0.00 0.00 63 1025.8
20200406214205 47 0 0.0 0.0 0.00 0.00 0.00 63 1025.7
20200406213705 47 0 0.0 0.0 0.00 0.00 0.00 62 1025.7
20200406213205 48 0 0.0 0.0 0.00 0.00 0.00 61 1025.7
20200406212704 48 0 0.0 0.0 0.00 0.00 0.00 61 1025.7
20200406212205 48 0 0.0 0.0 0.00 0.00 0.00 60 1025.6
20200406211705 48 0 0.0 0.0 0.00 0.00 0.00 60 1025.6
20200406211205 49 0 0.0 0.0 0.00 0.00 0.00 59 1025.7
20200406210705 49 0 0.0 0.0 0.00 0.00 0.00 59 1025.6
20200406210205 49 0 0.0 0.0 0.00 0.00 0.00 58 1025.7
20200406205705 50 0 0.0 0.0 0.00 0.00 0.00 57 1025.7
20200406205204 50 346 0.0 0.0 0.00 0.00 0.00 57 1025.6
20200406204705 50 0 0.0 0.0 0.00 0.00 0.00 57 1025.6
20200406204205 50 0 0.0 0.0 0.00 0.00 0.00 55 1025.6
20200406203705 51 0 0.0 0.0 0.00 0.00 0.00 54 1025.6
20200406203205 51 0 0.0 0.0 0.00 0.00 0.00 54 1025.6
20200406202705 51 0 0.0 0.0 0.00 0.00 0.00 53 1025.6
20200406202205 51 0 0.0 0.0 0.00 0.00 0.00 52 1025.5
20200406201705 51 0 0.0 0.0 0.00 0.00 0.00 52 1025.4
20200406201205 52 0 0.0 0.0 0.00 0.00 0.00 52 1025.4
20200406200705 52 0 0.0 0.0 0.00 0.00 0.00 50 1025.4
20200406200205 53 0 0.0 0.0 0.00 0.00 0.00 49 1025.3
20200406195705 53 0 0.0 0.0 0.00 0.00 0.00 49 1025.3
20200406195205 53 0 0.0 0.0 0.00 0.00 0.00 50 1025.1
20200406194705 53 0 0.0 0.0 0.00 0.00 0.00 49 1025.1
20200406194205 54 0 0.0 0.0 0.00 0.00 0.00 49 1025.1
20200406193705 54 0 0.0 0.0 0.00 0.00 0.00 49 1025.0
20200406193205 55 0 0.0 0.0 0.00 0.00 0.00 48 1025.0
20200406192705 55 0 0.0 0.0 0.00 0.00 0.00 47 1024.9
20200406192204 56 0 0.0 0.0 0.00 0.00 0.00 47 1024.9
20200406191705 56 0 0.0 0.0 0.00 0.00 0.00 46 1024.9
20200406191205 57 0 0.0 0.0 0.00 0.00 0.00 43 1024.9
20200406190705 57 0 0.0 0.0 0.00 0.00 0.00 42 1024.8
20200406190205 58 0 0.0 0.0 0.00 0.00 0.00 42 1024.8
20200406185705 58 0 0.0 0.0 0.00 0.00 0.00 41 1024.7
20200406185205 58 0 0.0 0.0 0.00 0.00 0.00 39 1024.7
20200406184705 59 0 0.0 0.0 0.00 0.00 0.00 39 1024.6
20200406184205 60 0 0.0 0.0 0.00 0.00 0.00 38 1024.6
20200406183704 60 0 0.0 0.0 0.00 0.00 0.00 38 1024.5
20200406183205 61 0 0.0 0.0 0.00 0.00 0.00 37 1024.4
20200406182705 61 0 0.0 0.0 0.00 0.00 0.00 36 1024.4
20200406182205 61 0 0.0 0.0 0.00 0.00 0.00 35 1024.2
20200406181704 62 0 0.0 0.0 0.00 0.00 0.00 35 1024.1
20200406181205 62 0 0.0 0.0 0.00 0.00 0.00 34 1024.0
20200406180705 62 346 0.0 0.0 0.00 0.00 0.00 34 1024.0
20200406180205 63 0 0.0 0.0 0.00 0.00 0.00 33 1024.0
20200406175705 63 0 0.0 0.0 0.00 0.00 0.00 33 1023.9
20200406175205 63 0 0.0 0.0 0.00 0.00 0.00 33 1023.8
20200406174705 64 0 0.0 0.0 0.00 0.00 0.00 32 1023.8
20200406174205 64 0 0.0 0.0 0.00 0.00 0.00 31 1023.6
20200406173704 65 0 0.0 0.0 0.00 0.00 0.00 31 1023.5
20200406173205 65 346 0.0 0.0 0.00 0.00 0.00 30 1023.5
20200406172705 65 331 0.0 0.0 0.00 0.00 0.00 30 1023.5
20200406172205 65 0 0.0 0.0 0.00 0.00 0.00 30 1023.4
20200406171705 66 0 0.0 0.0 0.00 0.00 0.00 29 1023.4
20200406171204 66 313 0.0 0.0 0.00 0.00 0.00 29 1023.2
20200406170705 66 0 0.0 0.0 0.00 0.00 0.00 29 1023.2
20200406170205 67 0 0.0 0.0 0.00 0.00 0.00 29 1023.2
20200406165705 67 0 0.0 0.0 0.00 0.00 0.00 29 1023.2
20200406165205 67 0 0.0 0.0 0.00 0.00 0.00 28 1023.1
20200406164705 67 0 0.0 0.0 0.00 0.00 0.00 28 1023.1
20200406164205 67 0 0.0 0.0 0.00 0.00 0.00 28 1023.0
20200406163705 67 0 0.0 0.0 0.00 0.00 0.00 28 1023.0
20200406163205 67 351 0.0 0.0 0.00 0.00 0.00 28 1023.0
20200406162705 68 15 0.0 0.0 0.00 0.00 0.00 28 1022.9
20200406162205 68 50 0.0 0.0 0.00 0.00 0.00 28 1022.9
20200406161705 68 311 0.0 0.0 0.00 0.00 0.00 27 1022.9
20200406161205 68 355 0.0 0.0 0.00 0.00 0.00 28 1022.8
20200406160706 68 301 0.0 0.0 0.00 0.00 0.00 29 1022.7
20200406160205 68 46 0.0 0.0 0.00 0.00 0.00 29 1022.7
20200406155704 68 28 0.0 0.0 0.00 0.00 0.00 28 1022.7
20200406155205 68 9 0.0 0.0 0.00 0.00 0.00 29 1022.8
20200406154705 68 285 0.0 0.0 0.00 0.00 0.00 28 1022.7
20200406154205 68 11 0.0 0.0 0.00 0.00 0.00 29 1022.8
20200406153705 68 323 0.0 0.0 0.00 0.00 0.00 28 1022.8
20200406153205 68 327 0.0 0.0 0.00 0.00 0.00 28 1022.7
20200406152705 68 19 0.0 0.0 0.00 0.00 0.00 26 1022.7
20200406152205 68 17 0.0 0.0 0.00 0.00 0.00 25 1022.7
20200406151705 68 33 0.0 0.0 0.00 0.00 0.00 25 1022.7
20200406151205 68 5 0.0 0.0 0.00 0.00 0.00 25 1022.8
20200406150705 69 299 0.0 0.0 0.00 0.00 0.00 25 1022.9
20200406150205 69 80 0.0 0.0 0.00 0.00 0.00 26 1022.9
20200406145704 69 115 0.0 0.0 0.00 0.00 0.00 26 1022.9
20200406145206 69 355 0.0 0.0 0.00 0.00 0.00 26 1022.9
20200406144705 68 326 0.0 0.0 0.00 0.00 0.00 27 1022.9
20200406144205 68 336 0.0 0.0 0.00 0.00 0.00 28 1022.9
20200406143704 68 59 0.0 0.0 0.00 0.00 0.00 27 1022.9
20200406143205 68 0 0.0 0.0 0.00 0.00 0.00 26 1022.9
20200406142705 69 0 0.0 0.0 0.00 0.00 0.00 26 1022.9
20200406142205 69 313 0.0 0.0 0.00 0.00 0.00 27 1022.9
20200406141705 68 234 0.0 0.0 0.00 0.00 0.00 27 1022.9
20200406141205 68 18 0.0 0.0 0.00 0.00 0.00 29 1022.9
20200406140705 68 342 0.0 0.0 0.00 0.00 0.00 29 1022.9
20200406140205 68 24 0.0 0.9 0.00 0.00 0.00 29 1022.9
20200406135704 68 325 0.0 0.9 0.00 0.00 0.00 29 1022.9
20200406135204 67 355 0.0 0.0 0.00 0.00 0.00 30 1023.0
20200406134705 68 303 0.0 2.6 0.00 0.00 0.00 29 1023.1
20200406134205 68 329 0.0 2.6 0.00 0.00 0.00 30 1023.0
20200406133705 67 296 0.0 2.6 0.00 0.00 0.00 31 1023.0
20200406133206 67 0 0.0 0.9 0.00 0.00 0.00 31 1023.0
20200406132704 67 0 0.0 0.9 0.00 0.00 0.00 31 1023.0
20200406132205 67 0 0.0 0.9 0.00 0.00 0.00 32 1023.0
20200406131205 68 64 0.0 4.3 0.00 0.00 0.00 31 1023.0
20200406130706 68 191 0.0 4.3 0.00 0.00 0.00 33 1023.1
20200406125705 67 0 0.0 0.0 0.00 0.00 0.00 32 1023.2
20200406125204 67 304 0.0 0.9 0.00 0.00 0.00 33 1023.1
20200406124204 67 331 0.0 1.7 0.00 0.00 0.00 33 1023.2
20200406123705 66 85 0.0 2.6 0.00 0.00 0.00 34 1023.1
20200406122705 67 0 0.0 0.9 0.00 0.00 0.00 33 1023.2
20200406122205 66 213 0.0 0.9 0.00 0.00 0.00 33 1023.2
20200406121205 66 223 0.0 0.9 0.00 0.00 0.00 33 1023.2
20200406120705 66 233 0.0 0.0 0.00 0.00 0.00 33 1023.2
20200406115704 67 0 0.0 0.0 0.00 0.00 0.00 34 1023.2
20200406115205 66 0 0.0 0.0 0.00 0.00 0.00 33 1023.2
20200406114205 66 0 0.0 0.0 0.00 0.00 0.00 33 1023.2
20200406113705 65 0 0.0 0.0 0.00 0.00 0.00 34 1023.2
20200406112705 65 0 0.0 0.0 0.00 0.00 0.00 35 1023.1
20200406112205 64 223 0.0 0.0 0.00 0.00 0.00 33 1023.1
20200406111705 64 0 0.0 0.0 0.00 0.00 0.00 35 1023.2
20200406111204 64 244 0.0 0.0 0.00 0.00 0.00 36 1023.2
20200406110705 64 220 0.0 0.0 0.00 0.00 0.00 35 1023.2
20200406110205 64 233 0.0 0.0 0.00 0.00 0.00 36 1023.4
20200406105705 64 246 0.0 0.0 0.00 0.00 0.00 36 1023.4
20200406105205 63 296 0.0 0.0 0.00 0.00 0.00 40 1023.4
20200406104705 63 225 0.0 0.9 0.00 0.00 0.00 40 1023.5
20200406104205 63 263 0.0 0.9 0.00 0.00 0.00 40 1023.4
20200406103705 63 241 0.0 0.9 0.00 0.00 0.00 39 1023.4
20200406103205 62 190 0.0 0.9 0.00 0.00 0.00 41 1023.4
20200406102705 62 254 0.0 0.9 0.00 0.00 0.00 41 1023.4
20200406102205 62 177 0.0 0.0 0.00 0.00 0.00 42 1023.2
20200406101705 62 241 0.0 0.0 0.00 0.00 0.00 42 1023.4
20200406101205 62 258 0.0 0.0 0.00 0.00 0.00 42 1023.2
20200406100705 62 256 0.0 0.0 0.00 0.00 0.00 43 1023.2
20200406100205 62 232 0.0 0.0 0.00 0.00 0.00 43 1023.4
20200406095705 62 251 0.0 0.0 0.00 0.00 0.00 42 1023.4
20200406095205 61 238 0.0 0.0 0.00 0.00 0.00 43 1023.4
20200406094705 61 220 0.0 0.0 0.00 0.00 0.00 43 1023.4
20200406094205 61 0 0.0 0.0 0.00 0.00 0.00 43 1023.4
20200406093705 61 271 0.0 0.0 0.00 0.00 0.00 42 1023.4
20200406093204 61 263 0.0 0.0 0.00 0.00 0.00 43 1023.2
20200406092704 61 280 0.0 0.0 0.00 0.00 0.00 44 1023.2
20200406092205 61 274 0.0 0.9 0.00 0.00 0.00 45 1023.2
20200406091705 61 246 0.0 0.9 0.00 0.00 0.00 44 1023.4
20200406091205 61 238 0.0 0.9 0.00 0.00 0.00 44 1023.1
20200406090705 60 234 0.0 0.0 0.00 0.00 0.00 46 1023.1
20200406090205 60 232 0.0 0.0 0.00 0.00 0.00 46 1023.1
20200406085705 59 277 0.0 0.0 0.00 0.00 0.00 47 1023.1
20200406085205 59 265 0.0 0.0 0.00 0.00 0.00 48 1023.1
20200406084705 58 257 0.0 0.0 0.00 0.00 0.00 49 1023.1
20200406084205 58 254 0.0 0.0 0.00 0.00 0.00 50 1023.1
20200406083705 57 217 0.0 0.0 0.00 0.00 0.00 51 1023.1
20200406083205 57 246 0.0 0.0 0.00 0.00 0.00 51 1023.0
20200406082705 56 229 0.0 0.0 0.00 0.00 0.00 51 1023.1
20200406082205 56 232 0.0 0.0 0.00 0.00 0.00 52 1023.1
20200406081705 55 214 0.0 0.0 0.00 0.00 0.00 53 1023.1
20200406081205 55 234 0.0 0.0 0.00 0.00 0.00 52 1022.9
20200406080705 55 236 0.0 1.7 0.00 0.00 0.00 53 1022.9
20200406080205 54 225 0.0 2.6 0.00 0.00 0.00 53 1023.0
20200406075704 54 237 0.0 2.6 0.00 0.00 0.00 53 1022.9
20200406075205 54 205 0.0 0.0 0.00 0.00 0.00 53 1022.9
20200406074705 54 252 0.0 0.0 0.00 0.00 0.00 52 1022.8
20200406074205 53 256 0.0 0.0 0.00 0.00 0.00 53 1022.8
20200406073705 53 301 0.0 0.0 0.00 0.00 0.00 57 1022.7
20200406073205 51 255 0.0 0.0 0.00 0.00 0.00 60 1022.6
20200406072705 51 234 0.0 0.0 0.00 0.00 0.00 63 1022.6
20200406072205 50 209 0.0 0.0 0.00 0.00 0.00 63 1022.5
20200406071705 49 262 0.0 0.0 0.00 0.00 0.00 67 1022.5
20200406071205 48 252 0.0 0.0 0.00 0.00 0.00 69 1022.5
20200406070705 47 252 0.0 0.0 0.00 0.00 0.00 70 1022.4
20200406065704 46 248 0.0 0.0 0.00 0.00 0.00 72 1022.4
20200406065205 46 248 0.0 0.0 0.00 0.00 0.00 73 1022.3
20200406064705 45 248 0.0 0.0 0.00 0.00 0.00 74 1022.3
20200406064205 45 245 0.0 0.0 0.00 0.00 0.00 76 1022.2
20200406063705 44 245 0.0 0.0 0.00 0.00 0.00 76 1022.3
20200406063205 44 245 0.0 0.0 0.00 0.00 0.00 77 1022.2
20200406062704 43 245 0.0 0.0 0.00 0.00 0.00 77 1022.1
20200406062205 43 245 0.0 0.0 0.00 0.00 0.00 78 1022.0
20200406061705 42 245 0.0 0.0 0.00 0.00 0.00 78 1021.9
20200406061204 42 245 0.0 0.0 0.00 0.00 0.00 80 1021.7
20200406060705 41 219 0.0 0.0 0.00 0.00 0.00 80 1021.7
20200406060205 41 219 0.0 0.0 0.00 0.00 0.00 82 1021.6
20200406055705 40 0 0.0 0.0 0.00 0.00 0.00 83 1021.7
20200406055204 39 0 0.0 0.0 0.00 0.00 0.00 84 1021.6
20200406054705 39 0 0.0 0.0 0.00 0.00 0.00 85 1021.6
20200406054206 38 0 0.0 0.0 0.00 0.00 0.00 85 1021.6
20200406053705 38 0 0.0 0.0 0.00 0.00 0.00 86 1021.5
20200406053205 37 0 0.0 0.0 0.00 0.00 0.00 86 1021.5
20200406052705 36 0 0.0 0.0 0.00 0.00 0.00 87 1021.5
20200406052204 35 238 0.0 0.0 0.00 0.00 0.00 87 1021.4
20200406051704 35 249 0.0 0.0 0.00 0.00 0.00 87 1021.4
20200406051205 34 0 0.0 0.0 0.00 0.00 0.00 86 1021.2
20200406050704 34 0 0.0 0.0 0.00 0.00 0.00 86 1021.1
20200406050205 34 0 0.0 0.0 0.00 0.00 0.00 85 1021.1
20200406045704 34 248 0.0 0.0 0.00 0.00 0.00 85 1021.0
20200406045205 34 248 0.0 0.0 0.00 0.00 0.00 85 1020.9
20200406044705 34 249 0.0 0.0 0.00 0.00 0.00 85 1020.9
20200406044205 34 249 0.0 0.0 0.00 0.00 0.00 86 1020.8
20200406043705 34 249 0.0 0.0 0.00 0.00 0.00 85 1020.8
20200406043204 34 249 0.0 0.0 0.00 0.00 0.00 85 1020.7
20200406042705 34 248 0.0 0.0 0.00 0.00 0.00 85 1020.7
20200406042205 34 248 0.0 0.0 0.00 0.00 0.00 84 1020.6
20200406041705 34 0 0.0 0.0 0.00 0.00 0.00 85 1020.5
20200406041204 34 0 0.0 0.0 0.00 0.00 0.00 84 1020.3
20200406040705 34 0 0.0 0.0 0.00 0.00 0.00 84 1020.3
20200406040205 35 249 0.0 0.0 0.00 0.00 0.00 84 1020.3